| time (UTC) | temp F | wind direction | speed knots | gust knots | rain 1hr in | rain 24hr in | rain mn in | humidity % | barometer mb |
| 20260505110950 | 76 | 161 | 2.6 | 3.5 | 0.00 | 0.00 | 0.00 | 44 | 1006.2 |
| 20260505110421 | 76 | 158 | 3.5 | 7.0 | 0.00 | 0.00 | 0.00 | 46 | 1006.1 |
| 20260505102220 | 75 | 267 | 1.7 | 3.5 | 0.00 | 0.00 | 0.00 | 47 | 1006.6 |
| 20260505101650 | 75 | 304 | 2.6 | 2.6 | 0.00 | 0.00 | 0.00 | 49 | 1006.9 |
| 20260505101342 | 74 | 37 | 0.9 | 2.6 | 0.00 | 0.00 | 0.00 | 50 | 1006.8 |
| 20260505100551 | 73 | 169 | 0.9 | 3.5 | 0.00 | 0.00 | 0.00 | 50 | 1007.0 |
| 20260505100051 | 73 | 283 | 2.6 | 5.2 | 0.00 | 0.00 | 0.00 | 50 | 1007.0 |
| 20260505095521 | 73 | 260 | 1.7 | 3.5 | 0.00 | 0.00 | 0.00 | 51 | 1006.9 |
| 20260505095021 | 74 | 181 | 0.9 | 7.0 | 0.00 | 0.00 | 0.00 | 49 | 1007.1 |
| 20260505094451 | 74 | 61 | 0.0 | 5.2 | 0.00 | 0.00 | 0.00 | 49 | 1007.3 |
| 20260505093921 | 73 | 140 | 2.6 | 6.1 | 0.00 | 0.00 | 0.00 | 50 | 1007.1 |
| 20260505093421 | 72 | 167 | 1.7 | 2.6 | 0.00 | 0.00 | 0.00 | 51 | 1007.4 |
| 20260505092851 | 72 | 174 | 2.6 | 3.5 | 0.00 | 0.00 | 0.00 | 53 | 1007.3 |
| 20260505092351 | 72 | 42 | 1.7 | 1.7 | 0.00 | 0.00 | 0.00 | 50 | 1007.5 |
| 20260505091851 | 73 | 164 | 2.6 | 3.5 | 0.00 | 0.00 | 0.00 | 50 | 1007.4 |
| 20260505091611 | 72 | 165 | 1.7 | 3.5 | 0.00 | 0.00 | 0.00 | 53 | 1007.3 |
| 20260505090851 | 72 | 155 | 0.0 | 1.7 | 0.00 | 0.00 | 0.00 | 50 | 1007.7 |
| 20260505090350 | 72 | 69 | 2.6 | 6.1 | 0.00 | 0.00 | 0.00 | 52 | 1007.6 |
| 20260505085851 | 71 | 146 | 0.9 | 1.7 | 0.00 | 0.00 | 0.00 | 54 | 1007.7 |
| 20260505085350 | 72 | 178 | 1.7 | 2.6 | 0.00 | 0.00 | 0.00 | 53 | 1007.7 |
| 20260505085110 | 71 | 97 | 1.7 | 2.6 | 0.00 | 0.00 | 0.00 | 55 | 1007.7 |
| 20260505084320 | 70 | 161 | 0.9 | 5.2 | 0.00 | 0.00 | 0.00 | 54 | 1007.6 |
| 20260505084041 | 69 | 211 | 1.7 | 2.6 | 0.00 | 0.00 | 0.00 | 55 | 1007.7 |
| 20260505083250 | 70 | 202 | 0.9 | 2.6 | 0.00 | 0.00 | 0.00 | 55 | 1007.7 |
| 20260505082720 | 70 | 252 | 2.6 | 2.6 | 0.00 | 0.00 | 0.00 | 55 | 1007.5 |
| 20260505082220 | 69 | 127 | 1.7 | 2.6 | 0.00 | 0.00 | 0.00 | 55 | 1007.9 |
| 20260505081942 | 69 | 179 | 0.9 | 1.7 | 0.00 | 0.00 | 0.00 | 56 | 1007.8 |
| 20260505081150 | 68 | 189 | 0.0 | 3.5 | 0.00 | 0.00 | 0.00 | 57 | 1007.7 |
| 20260505080651 | 68 | 155 | 0.9 | 1.7 | 0.00 | 0.00 | 0.00 | 56 | 1007.9 |
| 20260505080150 | 67 | 119 | 0.9 | 3.5 | 0.00 | 0.00 | 0.00 | 59 | 1007.9 |
| 20260505075620 | 67 | 226 | 0.9 | 2.6 | 0.00 | 0.00 | 0.00 | 58 | 1007.9 |
| 20260505075310 | 67 | 300 | 0.0 | 1.7 | 0.00 | 0.00 | 0.00 | 59 | 1008.0 |
| 20260505074550 | 66 | 226 | 0.9 | 1.7 | 0.00 | 0.00 | 0.00 | 60 | 1008.1 |
| 20260505074050 | 66 | 171 | 1.7 | 2.6 | 0.00 | 0.00 | 0.00 | 59 | 1008.0 |
| 20260505073520 | 67 | 181 | 0.9 | 3.5 | 0.00 | 0.00 | 0.00 | 58 | 1008.0 |
| 20260505073211 | 67 | 167 | 0.9 | 2.6 | 0.00 | 0.00 | 0.00 | 61 | 1008.2 |
| 20260505072450 | 66 | 134 | 2.6 | 3.5 | 0.00 | 0.00 | 0.00 | 59 | 1008.2 |
| 20260505071950 | 66 | 175 | 1.7 | 2.6 | 0.00 | 0.00 | 0.00 | 62 | 1008.2 |
| 20260505071450 | 65 | 156 | 0.9 | 3.5 | 0.00 | 0.00 | 0.00 | 62 | 1008.2 |
| 20260505070921 | 65 | 167 | 1.7 | 2.6 | 0.00 | 0.00 | 0.00 | 62 | 1008.3 |
| 20260505070641 | 65 | 163 | 1.7 | 2.6 | 0.00 | 0.00 | 0.00 | 62 | 1008.2 |
| 20260505065851 | 64 | 162 | 1.7 | 1.7 | 0.00 | 0.00 | 0.00 | 65 | 1008.1 |
| 20260505065351 | 63 | 136 | 2.6 | 3.5 | 0.00 | 0.00 | 0.00 | 66 | 1008.4 |
| 20260505064851 | 63 | 164 | 1.7 | 6.1 | 0.00 | 0.00 | 0.00 | 66 | 1008.5 |
| 20260505064321 | 63 | 186 | 0.9 | 1.7 | 0.00 | 0.00 | 0.00 | 66 | 1008.4 |
| 20260505063751 | 63 | 188 | 1.7 | 3.5 | 0.00 | 0.00 | 0.00 | 66 | 1008.4 |
| 20260505063221 | 63 | 174 | 1.7 | 2.6 | 0.00 | 0.00 | 0.00 | 67 | 1008.4 |
| 20260505062651 | 62 | 168 | 1.7 | 1.7 | 0.00 | 0.00 | 0.00 | 67 | 1008.4 |
| 20260505062121 | 61 | 192 | 1.7 | 5.2 | 0.00 | 0.00 | 0.00 | 68 | 1008.4 |
| 20260505061621 | 61 | 161 | 2.6 | 3.5 | 0.00 | 0.00 | 0.00 | 68 | 1008.3 |
| 20260505061340 | 61 | 150 | 1.7 | 2.6 | 0.00 | 0.00 | 0.00 | 69 | 1008.5 |
| 20260505060620 | 61 | 187 | 2.6 | 3.5 | 0.00 | 0.00 | 0.00 | 68 | 1008.5 |
| 20260505060051 | 61 | 137 | 1.7 | 5.2 | 0.00 | 0.00 | 0.00 | 68 | 1008.5 |
| 20260505055521 | 61 | 178 | 0.9 | 5.2 | 0.00 | 0.00 | 0.00 | 67 | 1008.5 |
| 20260505054951 | 61 | 158 | 1.7 | 3.5 | 0.00 | 0.00 | 0.00 | 67 | 1008.4 |
| 20260505054711 | 61 | 169 | 1.7 | 6.1 | 0.00 | 0.00 | 0.00 | 68 | 1008.3 |
| 20260505053921 | 60 | 140 | 2.6 | 3.5 | 0.00 | 0.00 | 0.00 | 69 | 1008.4 |
| 20260505053421 | 60 | 181 | 3.5 | 3.5 | 0.00 | 0.00 | 0.00 | 71 | 1008.4 |
| 20260505052921 | 59 | 187 | 1.7 | 2.6 | 0.00 | 0.00 | 0.00 | 71 | 1008.3 |
| 20260505052421 | 59 | 142 | 1.7 | 3.5 | 0.00 | 0.00 | 0.00 | 72 | 1008.4 |
| 20260505051851 | 58 | 146 | 1.7 | 3.5 | 0.00 | 0.00 | 0.00 | 73 | 1008.1 |
| 20260505051351 | 58 | 126 | 1.7 | 1.7 | 0.00 | 0.00 | 0.00 | 74 | 1008.4 |
| 20260505051110 | 57 | 124 | 1.7 | 2.6 | 0.00 | 0.00 | 0.00 | 75 | 1008.1 |
| 20260505050321 | 56 | 134 | 1.7 | 2.6 | 0.00 | 0.00 | 0.00 | 76 | 1008.2 |
| 20260505041051 | 52 | 160 | 0.0 | 0.0 | 0.00 | 0.00 | 0.00 | 80 | 1007.9 |
| 20260505040551 | 53 | 161 | 0.0 | 0.0 | 0.00 | 0.00 | 0.00 | 80 | 1008.2 |
| 20260505040051 | 53 | 161 | 0.0 | 0.9 | 0.00 | 0.00 | 0.00 | 79 | 1008.1 |
| 20260505035521 | 53 | 86 | 0.0 | 0.9 | 0.00 | 0.00 | 0.00 | 79 | 1008.3 |
| 20260505035240 | 53 | 66 | 1.7 | 2.6 | 0.00 | 0.00 | 0.00 | 80 | 1008.1 |
| 20260505034450 | 53 | 68 | 1.7 | 3.5 | 0.00 | 0.00 | 0.00 | 80 | 1008.2 |
| 20260505033921 | 53 | 59 | 1.7 | 3.5 | 0.00 | 0.00 | 0.00 | 80 | 1008.2 |
| 20260505033421 | 53 | 56 | 1.7 | 1.7 | 0.00 | 0.00 | 0.00 | 79 | 1008.1 |
| 20260505032851 | 53 | 87 | 0.0 | 1.7 | 0.00 | 0.00 | 0.00 | 78 | 1008.1 |
| 20260505032321 | 53 | 76 | 0.9 | 1.7 | 0.00 | 0.00 | 0.00 | 78 | 1008.3 |
| 20260505032041 | 54 | 49 | 0.0 | 0.9 | 0.00 | 0.00 | 0.00 | 78 | 1008.2 |
| 20260505031250 | 54 | 77 | 0.9 | 0.9 | 0.00 | 0.00 | 0.00 | 77 | 1008.0 |
| 20260505030721 | 54 | 75 | 0.9 | 0.9 | 0.00 | 0.00 | 0.00 | 77 | 1007.9 |
| 20260505030220 | 54 | 105 | 0.0 | 0.0 | 0.00 | 0.00 | 0.00 | 76 | 1008.1 |
| 20260505025650 | 55 | 105 | 0.9 | 0.9 | 0.00 | 0.00 | 0.00 | 75 | 1007.9 |
| 20260505025341 | 55 | 140 | 0.9 | 0.9 | 0.00 | 0.00 | 0.00 | 75 | 1008.1 |
| 20260505024620 | 55 | 154 | 0.0 | 0.0 | 0.00 | 0.00 | 0.00 | 74 | 1008.1 |
| 20260505024051 | 56 | 155 | 0.0 | 0.9 | 0.00 | 0.00 | 0.00 | 73 | 1007.9 |
| 20260505023521 | 56 | 154 | 0.0 | 0.0 | 0.00 | 0.00 | 0.00 | 72 | 1008.2 |
| 20260505022950 | 56 | 154 | 0.9 | 0.9 | 0.00 | 0.00 | 0.00 | 71 | 1007.9 |
| 20260505022451 | 57 | 155 | 0.0 | 0.9 | 0.00 | 0.00 | 0.00 | 71 | 1007.8 |
| 20260505021921 | 57 | 181 | 1.7 | 3.5 | 0.00 | 0.00 | 0.00 | 70 | 1008.1 |
| 20260505021350 | 57 | 219 | 0.9 | 2.6 | 0.00 | 0.00 | 0.00 | 70 | 1008.1 |
| 20260505020821 | 57 | 199 | 0.0 | 0.9 | 0.00 | 0.00 | 0.00 | 71 | 1008.0 |
| 20260505020321 | 57 | 190 | 0.0 | 1.7 | 0.00 | 0.00 | 0.00 | 70 | 1008.0 |
| 20260505015751 | 57 | 168 | 0.9 | 1.7 | 0.00 | 0.00 | 0.00 | 70 | 1007.9 |
| 20260505015511 | 57 | 166 | 1.7 | 2.6 | 0.00 | 0.00 | 0.00 | 70 | 1007.7 |
| 20260505014721 | 57 | 175 | 0.9 | 1.7 | 0.00 | 0.00 | 0.00 | 69 | 1007.9 |
| 20260505014151 | 57 | 180 | 1.7 | 2.6 | 0.00 | 0.00 | 0.00 | 70 | 1008.1 |
| 20260505013651 | 57 | 155 | 1.7 | 1.7 | 0.00 | 0.00 | 0.00 | 70 | 1007.8 |
| 20260505013121 | 57 | 142 | 3.5 | 5.2 | 0.00 | 0.00 | 0.00 | 68 | 1008.0 |
| 20260505012842 | 57 | 102 | 2.6 | 3.5 | 0.00 | 0.00 | 0.00 | 68 | 1007.7 |
| 20260505012121 | 57 | 73 | 2.6 | 3.5 | 0.00 | 0.00 | 0.00 | 68 | 1008.0 |
| 20260505011811 | 57 | 81 | 1.7 | 1.7 | 0.00 | 0.00 | 0.00 | 69 | 1008.1 |
| 20260505011051 | 57 | 94 | 0.9 | 1.7 | 0.00 | 0.00 | 0.00 | 69 | 1008.0 |
| 20260505010551 | 58 | 82 | 0.9 | 0.9 | 0.00 | 0.00 | 0.00 | 69 | 1008.0 |
| 20260505010050 | 58 | 68 | 0.0 | 0.9 | 0.00 | 0.00 | 0.00 | 68 | 1008.0 |
| 20260505005520 | 58 | 69 | 0.9 | 1.7 | 0.00 | 0.00 | 0.00 | 68 | 1007.8 |
| 20260505005210 | 58 | 49 | 1.7 | 2.6 | 0.00 | 0.00 | 0.00 | 68 | 1008.1 |
| 20260505004450 | 58 | 92 | 0.0 | 1.7 | 0.00 | 0.00 | 0.00 | 68 | 1008.0 |
| 20260505003921 | 58 | 101 | 1.7 | 1.7 | 0.00 | 0.00 | 0.00 | 68 | 1008.2 |
| 20260505003420 | 58 | 154 | 0.9 | 1.7 | 0.00 | 0.00 | 0.00 | 67 | 1008.3 |
| 20260505002850 | 59 | 80 | 0.9 | 1.7 | 0.00 | 0.00 | 0.00 | 67 | 1008.5 |
| 20260505002541 | 59 | 22 | 0.9 | 2.6 | 0.00 | 0.00 | 0.00 | 66 | 1008.3 |
| 20260505001820 | 59 | 32 | 0.9 | 0.9 | 0.00 | 0.00 | 0.00 | 66 | 1008.5 |
| 20260505001250 | 59 | 11 | 0.9 | 0.9 | 0.00 | 0.00 | 0.00 | 66 | 1008.6 |
| 20260505000750 | 59 | 354 | 0.9 | 1.7 | 0.00 | 0.00 | 0.00 | 65 | 1008.6 |
| 20260505000221 | 59 | 326 | 1.7 | 1.7 | 0.00 | 0.00 | 0.00 | 66 | 1008.9 |
| 20260504235912 | 60 | 15 | 3.5 | 7.0 | 0.00 | 0.00 | 0.00 | 63 | 1008.7 |
| 20260504235121 | 61 | 26 | 1.7 | 2.6 | 0.00 | 0.00 | 0.00 | 61 | 1008.6 |
| 20260504234621 | 61 | 10 | 1.7 | 2.6 | 0.00 | 0.00 | 0.00 | 60 | 1008.7 |
| 20260504234051 | 61 | 251 | 0.9 | 2.6 | 0.00 | 0.00 | 0.00 | 59 | 1008.8 |
| 20260504233521 | 61 | 249 | 2.6 | 6.1 | 0.00 | 0.00 | 0.00 | 59 | 1008.7 |
| 20260504233212 | 61 | 242 | 1.7 | 2.6 | 0.00 | 0.00 | 0.00 | 59 | 1008.6 |
| 20260504232451 | 61 | 274 | 0.9 | 6.1 | 0.00 | 0.00 | 0.00 | 59 | 1008.8 |
| 20260504231921 | 62 | 191 | 1.7 | 1.7 | 0.00 | 0.00 | 0.00 | 58 | 1008.9 |
| 20260504231421 | 62 | 192 | 0.0 | 0.0 | 0.00 | 0.00 | 0.00 | 58 | 1008.7 |
| 20260504230851 | 62 | 199 | 0.9 | 1.7 | 0.00 | 0.00 | 0.00 | 57 | 1008.7 |
| 20260504230541 | 62 | 213 | 3.5 | 5.2 | 0.00 | 0.00 | 0.00 | 58 | 1008.8 |
| 20260504225751 | 61 | 219 | 1.7 | 1.7 | 0.00 | 0.00 | 0.00 | 59 | 1009.1 |
| 20260504225251 | 61 | 98 | 0.0 | 0.9 | 0.00 | 0.00 | 0.00 | 60 | 1008.8 |
| 20260504224721 | 61 | 97 | 0.0 | 0.0 | 0.00 | 0.00 | 0.00 | 59 | 1008.7 |
| 20260504224221 | 61 | 97 | 0.0 | 0.9 | 0.00 | 0.00 | 0.00 | 59 | 1008.7 |
| 20260504223942 | 61 | 98 | 0.0 | 0.9 | 0.00 | 0.00 | 0.00 | 58 | 1008.7 |
| 20260504223221 | 61 | 80 | 0.9 | 0.9 | 0.00 | 0.00 | 0.00 | 58 | 1008.9 |
| 20260504222651 | 62 | 45 | 1.7 | 1.7 | 0.00 | 0.00 | 0.00 | 58 | 1008.7 |
| 20260504222121 | 62 | 32 | 1.7 | 1.7 | 0.00 | 0.00 | 0.00 | 57 | 1008.9 |
| 20260504221621 | 62 | 40 | 0.9 | 2.6 | 0.00 | 0.00 | 0.00 | 56 | 1008.8 |
| 20260504221051 | 62 | 84 | 1.7 | 5.2 | 0.00 | 0.00 | 0.00 | 56 | 1008.9 |
| 20260504220521 | 63 | 123 | 2.6 | 3.5 | 0.00 | 0.00 | 0.00 | 56 | 1009.0 |
| 20260504220021 | 64 | 157 | 2.6 | 2.6 | 0.00 | 0.00 | 0.00 | 53 | 1009.1 |
| 20260504215451 | 64 | 152 | 1.7 | 3.5 | 0.00 | 0.00 | 0.00 | 52 | 1008.6 |
| 20260504214951 | 63 | 176 | 0.9 | 2.6 | 0.00 | 0.00 | 0.00 | 53 | 1008.7 |
| 20260504214421 | 63 | 183 | 1.7 | 1.7 | 0.00 | 0.00 | 0.00 | 54 | 1008.7 |
| 20260504214112 | 64 | 135 | 0.0 | 0.0 | 0.00 | 0.00 | 0.00 | 53 | 1008.7 |
| 20260504213351 | 64 | 135 | 0.0 | 0.9 | 0.00 | 0.00 | 0.00 | 53 | 1008.6 |
| 20260504212851 | 64 | 96 | 0.0 | 0.0 | 0.00 | 0.00 | 0.00 | 53 | 1008.7 |
| 20260504212321 | 65 | 96 | 0.0 | 1.7 | 0.00 | 0.00 | 0.00 | 51 | 1008.5 |
| 20260504211821 | 65 | 314 | 0.0 | 0.9 | 0.00 | 0.00 | 0.00 | 52 | 1008.6 |
| 20260504211542 | 65 | 314 | 0.0 | 0.0 | 0.00 | 0.00 | 0.00 | 51 | 1008.6 |
| 20260504210820 | 66 | 314 | 0.0 | 0.0 | 0.00 | 0.00 | 0.00 | 50 | 1008.6 |
| 20260504210320 | 66 | 314 | 0.0 | 0.0 | 0.00 | 0.00 | 0.00 | 48 | 1008.7 |
| 20260504210041 | 67 | 195 | 0.0 | 0.9 | 0.00 | 0.00 | 0.00 | 47 | 1008.4 |
| 20260504205250 | 67 | 175 | 0.0 | 0.0 | 0.00 | 0.00 | 0.00 | 46 | 1008.7 |
| 20260504204721 | 68 | 175 | 0.0 | 1.7 | 0.00 | 0.00 | 0.00 | 45 | 1008.7 |
| 20260504204220 | 68 | 171 | 1.7 | 1.7 | 0.00 | 0.00 | 0.00 | 45 | 1008.9 |
| 20260504203650 | 68 | 166 | 1.7 | 2.6 | 0.00 | 0.00 | 0.00 | 45 | 1008.7 |
| 20260504203341 | 68 | 210 | 2.6 | 5.2 | 0.00 | 0.00 | 0.00 | 46 | 1008.7 |
| 20260504202620 | 69 | 194 | 1.7 | 2.6 | 0.00 | 0.00 | 0.00 | 47 | 1008.6 |
| 20260504202120 | 69 | 129 | 0.0 | 1.7 | 0.00 | 0.00 | 0.00 | 46 | 1008.7 |
| 20260504201620 | 69 | 158 | 0.9 | 1.7 | 0.00 | 0.00 | 0.00 | 45 | 1008.6 |
| 20260504201050 | 70 | 178 | 1.7 | 1.7 | 0.00 | 0.00 | 0.00 | 45 | 1008.5 |
| 20260504200740 | 70 | 137 | 2.6 | 3.5 | 0.00 | 0.00 | 0.00 | 44 | 1008.6 |
| 20260504200020 | 71 | 108 | 3.5 | 6.1 | 0.00 | 0.00 | 0.00 | 44 | 1008.5 |
| 20260504195937 | 70 | 84 | 5.2 | 8.7 | 0.00 | 0.00 | 0.00 | 44 | 1008.6 |
| 20260504194920 | 71 | 88 | 4.3 | 6.1 | 0.00 | 0.00 | 0.00 | 45 | 1008.5 |
| 20260504194350 | 70 | 35 | 5.2 | 6.1 | 0.00 | 0.00 | 0.00 | 46 | 1008.5 |
| 20260504193850 | 70 | 26 | 4.3 | 7.0 | 0.00 | 0.00 | 0.00 | 47 | 1008.7 |
| 20260504193350 | 70 | 34 | 2.6 | 7.0 | 0.00 | 0.00 | 0.00 | 47 | 1008.8 |
| 20260504193111 | 71 | 32 | 3.5 | 7.0 | 0.00 | 0.00 | 0.00 | 47 | 1008.6 |
| 20260504192320 | 71 | 48 | 5.2 | 7.8 | 0.00 | 0.00 | 0.00 | 46 | 1008.8 |
| 20260504191750 | 71 | 35 | 3.5 | 7.8 | 0.00 | 0.00 | 0.00 | 46 | 1008.5 |
| 20260504191221 | 71 | 17 | 2.6 | 3.5 | 0.00 | 0.00 | 0.00 | 47 | 1008.7 |
| 20260504190650 | 71 | 34 | 1.7 | 2.6 | 0.00 | 0.00 | 0.00 | 46 | 1009.0 |
| 20260504190411 | 71 | 57 | 3.5 | 3.5 | 0.00 | 0.00 | 0.00 | 46 | 1008.8 |
| 20260504185650 | 71 | 39 | 2.6 | 5.2 | 0.00 | 0.00 | 0.00 | 46 | 1008.6 |
| 20260504185120 | 71 | 34 | 2.6 | 3.5 | 0.00 | 0.00 | 0.00 | 45 | 1009.0 |
| 20260504184810 | 71 | 331 | 3.5 | 5.2 | 0.00 | 0.00 | 0.00 | 44 | 1008.9 |
| 20260504184050 | 71 | 328 | 2.6 | 3.5 | 0.00 | 0.00 | 0.00 | 44 | 1008.9 |
| 20260504183550 | 71 | 310 | 2.6 | 5.2 | 0.00 | 0.00 | 0.00 | 44 | 1008.7 |
| 20260504183050 | 71 | 338 | 2.6 | 3.5 | 0.00 | 0.00 | 0.00 | 44 | 1008.9 |
| 20260504182550 | 72 | 305 | 3.5 | 3.5 | 0.00 | 0.00 | 0.00 | 44 | 1008.9 |
| 20260504182311 | 72 | 303 | 4.3 | 6.1 | 0.00 | 0.00 | 0.00 | 43 | 1008.9 |
| 20260504181520 | 72 | 310 | 1.7 | 2.6 | 0.00 | 0.00 | 0.00 | 43 | 1008.8 |
| 20260504180950 | 72 | 324 | 1.7 | 3.5 | 0.00 | 0.00 | 0.00 | 43 | 1009.0 |
| 20260504180451 | 72 | 321 | 1.7 | 3.5 | 0.00 | 0.00 | 0.00 | 44 | 1008.9 |
| 20260504175920 | 72 | 304 | 1.7 | 3.5 | 0.00 | 0.00 | 0.00 | 44 | 1009.1 |
| 20260504175350 | 72 | 297 | 0.9 | 3.5 | 0.00 | 0.00 | 0.00 | 43 | 1008.9 |
| 20260504174850 | 73 | 316 | 0.0 | 0.9 | 0.00 | 0.00 | 0.00 | 43 | 1008.9 |
| 20260504174321 | 73 | 310 | 1.7 | 2.6 | 0.00 | 0.00 | 0.00 | 42 | 1008.9 |
| 20260504173750 | 73 | 317 | 0.0 | 1.7 | 0.00 | 0.00 | 0.00 | 42 | 1008.8 |
| 20260504173510 | 73 | 321 | 1.7 | 5.2 | 0.00 | 0.00 | 0.00 | 43 | 1008.8 |
| 20260504172720 | 73 | 319 | 2.6 | 3.5 | 0.00 | 0.00 | 0.00 | 42 | 1008.6 |
| 20260504172220 | 73 | 317 | 1.7 | 2.6 | 0.00 | 0.00 | 0.00 | 42 | 1008.6 |
| 20260504171650 | 74 | 320 | 1.7 | 2.6 | 0.00 | 0.00 | 0.00 | 41 | 1008.6 |
| 20260504171121 | 75 | 305 | 3.5 | 6.1 | 0.00 | 0.00 | 0.00 | 39 | 1009.0 |
| 20260504170812 | 75 | 301 | 2.6 | 6.1 | 0.00 | 0.00 | 0.00 | 38 | 1008.9 |
| 20260504160220 | 78 | 21 | 0.0 | 0.9 | 0.00 | 0.00 | 0.00 | 34 | 1009.0 |
| 20260504151040 | 78 | 47 | 1.7 | 6.1 | 0.00 | 0.00 | 0.00 | 35 | 1009.5 |
| 20260504150320 | 79 | 15 | 4.3 | 6.1 | 0.00 | 0.00 | 0.00 | 34 | 1009.5 |
| 20260504141121 | 79 | 54 | 1.7 | 2.6 | 0.00 | 0.00 | 0.00 | 37 | 1010.5 |
| 20260504140551 | 79 | 356 | 2.6 | 3.5 | 0.00 | 0.00 | 0.00 | 36 | 1010.4 |
| 20260504140312 | 79 | 21 | 3.5 | 5.2 | 0.00 | 0.00 | 0.00 | 37 | 1010.4 |
| 20260504130221 | 79 | 323 | 0.9 | 3.5 | 0.00 | 0.00 | 0.00 | 36 | 1011.2 |
| 20260504120311 | 79 | 159 | 5.2 | 8.7 | 0.00 | 0.00 | 0.00 | 36 | 1012.3 |